TimeEST,TemperatureF,Dew PointF,Humidity,Sea Level PressureIn,VisibilityMPH,Wind Direction,Wind SpeedMPH,Gust SpeedMPH,PrecipitationIn,Events,Conditions,WindDirDegrees,DateUTC
12:15 AM,39.9,35.8,85,30.41,5.0,ENE,5.8,-,N/A,,Overcast,70,2013-12-08 05:15:00
12:35 AM,39.4,36.0,88,30.41,7.0,ENE,4.6,-,N/A,,Overcast,70,2013-12-08 05:35:00
12:55 AM,39.4,36.5,89,30.41,3.0,ENE,4.6,-,N/A,,Overcast,60,2013-12-08 05:55:00
1:15 AM,39.0,36.5,91,30.41,3.0,East,3.5,-,N/A,,Drizzle,100,2013-12-08 06:15:00
1:35 AM,38.8,36.1,90,30.41,10.0,ENE,8.1,-,N/A,,Overcast,70,2013-12-08 06:35:00
1:55 AM,38.5,34.9,87,30.41,10.0,East,10.4,-,N/A,,Overcast,90,2013-12-08 06:55:00
2:15 AM,38.5,34.7,86,30.40,10.0,East,8.1,-,N/A,,Overcast,80,2013-12-08 07:15:00
2:35 AM,38.5,34.2,84,30.39,10.0,East,5.8,-,N/A,,Overcast,80,2013-12-08 07:35:00
2:55 AM,38.7,34.0,83,30.40,10.0,NE,4.6,-,N/A,,Overcast,50,2013-12-08 07:55:00
3:15 AM,38.5,33.8,83,30.39,10.0,NE,5.8,-,N/A,,Overcast,50,2013-12-08 08:15:00
3:35 AM,38.3,33.6,83,30.40,10.0,NE,5.8,-,N/A,,Overcast,50,2013-12-08 08:35:00
3:55 AM,38.3,34.0,84,30.39,10.0,ENE,5.8,-,N/A,Rain,Light Rain,60,2013-12-08 08:55:00
4:15 AM,37.6,34.0,87,30.37,7.0,NE,4.6,-,0.01,Rain,Light Rain,50,2013-12-08 09:15:00
4:35 AM,37.0,33.3,86,30.39,10.0,NE,4.6,-,0.03,Rain,Light Rain,40,2013-12-08 09:35:00
4:55 AM,36.9,33.4,87,30.38,5.0,NNE,8.1,-,0.06,Rain,Light Rain,30,2013-12-08 09:55:00
5:15 AM,36.5,33.1,87,30.38,10.0,ENE,3.5,-,0.01,,Light Drizzle,60,2013-12-08 10:15:00
5:35 AM,36.7,33.3,87,30.40,10.0,NE,3.5,-,0.01,,Overcast,40,2013-12-08 10:35:00
5:55 AM,36.0,32.5,87,30.37,7.0,ENE,12.7,17.3,0.03,Rain,Rain,60,2013-12-08 10:55:00
6:15 AM,35.6,32.4,88,30.38,4.0,East,8.1,-,0.05,Rain,Rain,80,2013-12-08 11:15:00
6:35 AM,35.6,32.2,87,30.38,7.0,ENE,8.1,-,0.06,Rain,Light Rain,70,2013-12-08 11:35:00
6:55 AM,35.1,32.0,89,30.41,5.0,East,5.8,-,0.08,,Overcast,80,2013-12-08 11:55:00
7:15 AM,34.7,32.0,90,30.41,7.0,ENE,6.9,-,0.02,,Overcast,60,2013-12-08 12:15:00
7:35 AM,34.3,31.6,90,30.40,7.0,ENE,6.9,-,0.03,,Overcast,60,2013-12-08 12:35:00
7:55 AM,34.2,31.5,90,30.38,10.0,East,9.2,-,0.03,,Overcast,80,2013-12-08 12:55:00
8:15 AM,33.8,31.1,90,30.41,7.0,ENE,6.9,18.4,N/A,,Overcast,70,2013-12-08 13:15:00
8:35 AM,33.8,31.1,90,30.39,7.0,East,9.2,17.3,N/A,,Overcast,80,2013-12-08 13:35:00
8:55 AM,33.3,30.9,91,30.40,2.5,East,10.4,-,N/A,,Overcast,90,2013-12-08 13:55:00
9:15 AM,33.1,30.7,91,30.40,2.5,East,6.9,18.4,0.05,Snow,Light Snow,80,2013-12-08 14:15:00
9:35 AM,32.9,30.6,91,30.42,5.0,East,6.9,-,0.05,,Overcast,80,2013-12-08 14:35:00
10:15 AM,32.4,30.0,91,30.41,2.0,ESE,4.6,-,N/A,,Overcast,120,2013-12-08 15:15:00
10:35 AM,32.4,30.2,92,30.42,2.5,East,8.1,-,N/A,,Overcast,90,2013-12-08 15:35:00
10:55 AM,32.4,30.4,92,30.41,3.0,East,6.9,-,N/A,,Overcast,80,2013-12-08 15:55:00
11:15 AM,32.7,30.6,92,30.41,3.0,ENE,5.8,-,N/A,,Overcast,70,2013-12-08 16:15:00
11:35 AM,32.7,30.6,92,30.39,4.0,East,9.2,-,N/A,,Overcast,80,2013-12-08 16:35:00
12:15 PM,32.4,30.2,92,30.38,4.0,ENE,6.9,-,N/A,,Overcast,60,2013-12-08 17:15:00
12:35 PM,32.4,30.2,92,30.39,3.0,East,5.8,-,0.01,,Overcast,80,2013-12-08 17:35:00
12:55 PM,33.1,30.9,92,30.37,4.0,Calm,Calm,-,0.03,,Overcast,0,2013-12-08 17:55:00
1:15 PM,32.9,30.9,92,30.36,5.0,ENE,3.5,-,0.01,,Overcast,60,2013-12-08 18:15:00
1:35 PM,32.4,30.2,92,30.35,1.0,ENE,5.8,-,0.09,Snow,Light Snow,70,2013-12-08 18:35:00
1:55 PM,32.9,30.7,92,30.34,3.0,NE,5.8,-,0.15,,Overcast,50,2013-12-08 18:55:00
2:15 PM,32.9,30.4,90,30.34,4.0,ENE,5.8,-,0.01,,Overcast,70,2013-12-08 19:15:00
2:35 PM,33.1,30.7,91,30.33,10.0,East,5.8,-,0.01,,Overcast,80,2013-12-08 19:35:00
2:55 PM,33.1,30.6,90,30.33,10.0,East,4.6,-,0.01,,Overcast,90,2013-12-08 19:55:00
3:15 PM,33.1,30.7,91,30.32,10.0,ENE,4.6,-,N/A,,Overcast,60,2013-12-08 20:15:00
3:35 PM,33.1,30.9,92,30.32,10.0,East,5.8,-,N/A,,Overcast,90,2013-12-08 20:35:00
3:55 PM,32.9,30.4,90,30.32,10.0,East,3.5,-,N/A,,Overcast,80,2013-12-08 20:55:00
4:15 PM,32.9,30.6,91,30.32,10.0,East,6.9,-,N/A,,Overcast,90,2013-12-08 21:15:00
4:35 PM,32.9,30.7,92,30.31,4.0,East,3.5,-,N/A,,Overcast,90,2013-12-08 21:35:00
4:55 PM,32.9,30.4,90,30.32,10.0,East,3.5,-,N/A,,Overcast,80,2013-12-08 21:55:00
5:15 PM,32.5,30.4,92,30.32,5.0,Calm,Calm,-,N/A,,Overcast,0,2013-12-08 22:15:00
5:35 PM,32.5,30.4,92,30.30,5.0,ENE,3.5,-,N/A,,Overcast,70,2013-12-08 22:35:00
5:55 PM,32.5,30.7,93,30.31,4.0,Calm,Calm,-,N/A,,Overcast,0,2013-12-08 22:55:00
6:15 PM,32.4,30.7,94,30.30,4.0,ENE,5.8,-,N/A,,Overcast,60,2013-12-08 23:15:00
6:35 PM,32.4,30.7,94,30.31,3.0,Calm,Calm,-,N/A,,Overcast,0,2013-12-08 23:35:00
6:55 PM,32.4,30.9,94,30.32,3.0,Calm,Calm,-,N/A,,Overcast,0,2013-12-08 23:55:00
7:15 PM,32.5,30.9,94,30.32,4.0,Calm,Calm,-,N/A,,Overcast,0,2013-12-09 00:15:00
7:35 PM,32.9,31.1,93,30.31,3.0,Calm,Calm,-,N/A,,Overcast,0,2013-12-09 00:35:00
7:55 PM,33.1,31.3,93,30.30,3.0,Calm,Calm,-,N/A,,Overcast,0,2013-12-09 00:55:00
8:15 PM,33.1,31.1,92,30.30,3.0,East,4.6,-,0.01,,Overcast,100,2013-12-09 01:15:00
8:35 PM,32.9,31.1,93,30.31,5.0,Calm,Calm,-,0.01,,Overcast,0,2013-12-09 01:35:00
8:55 PM,33.1,31.1,92,30.31,10.0,Calm,Calm,-,0.01,,Overcast,0,2013-12-09 01:55:00
9:15 PM,33.1,31.1,92,30.30,3.0,Calm,Calm,-,N/A,,Overcast,0,2013-12-09 02:15:00
9:35 PM,32.9,31.1,93,30.29,5.0,Calm,Calm,-,N/A,,Overcast,0,2013-12-09 02:35:00
9:55 PM,32.9,31.1,93,30.29,7.0,Calm,Calm,-,N/A,,Overcast,0,2013-12-09 02:55:00
10:15 PM,33.1,31.1,92,30.29,5.0,Calm,Calm,-,N/A,,Overcast,0,2013-12-09 03:15:00
11:15 PM,33.1,31.1,92,30.27,10.0,Calm,Calm,-,N/A,,Overcast,0,2013-12-09 04:15:00
11:35 PM,32.9,31.1,93,30.25,10.0,Calm,Calm,-,N/A,,Overcast,0,2013-12-09 04:35:00
11:55 PM,33.1,31.1,92,30.25,7.0,Calm,Calm,-,N/A,,Overcast,0,2013-12-09 04:55:00